Regional Weather Roundup
Issued by NWS

Home | Current Version | Previous Version | Text Only | Print | Product List | Glossary Off
Versions: 1 2 3 4 5 6 7 8 9 10 11 12 13 14 15 16 17 18 19 20 21 22 23 24 25 26 27 28 29 30 31 32 33 34 35 36 37 38 39 40 41 42 43 44 45 46 47 48 49 50

000
ASUS44 KMEG 241310
RWRTN
TENNESSEE HOURLY STATE WEATHER ROUNDUP
NATIONAL WEATHER SERVICE MEMPHIS TN
800 AM CDT MON APR 24 2017

TNZ002-004-019-021-049-052-054-088>092-241400-
WEST TENNESSEE

CITY           SKY/WX    TMP DP  RH WIND       PRES   REMARKS
MEMPHIS INTL   MOSUNNY   57  48  72 N6        29.90R
NWS MEMPHIS      N/A     53 N/A N/A MISG        N/A
JACKSON        RAIN      53  49  86 N5        29.89R
SOMERVILLE     SUNNY     54  48  82 N7        29.88S
UNION CITY     SUNNY     55  46  71 N8        29.90S
BOLIVAR        CLOUDY    52  48  87 VRB5      29.88S
PARIS          CLOUDY    50  45  81 NW6       29.89R
HUNTINGDON     CLOUDY    54  48  82 VRB6      29.88R
LEXINGTON      CLOUDY    54  52  94 CALM      29.87R
SAVANNAH       CLOUDY    54  52  94 N6        29.87R
$$

TNZ008-025-027-028-033-062-065-066-241400-
NORTH MIDDLE TENNESSEE

CITY           SKY/WX    TMP DP  RH WIND       PRES   REMARKS
NASHVILLE      CLOUDY    55  52  89 N7        29.85S
PORTLAND       CLOUDY    54  52  94 N8        29.85S
CLARKSVILLE    MOSUNNY   57  50  77 NE9       29.87R
SMYRNA         CLOUDY    55  53  93 N7        29.85S
COOKEVILLE     CLOUDY    55  52  88 CALM      29.81S
GALLATIN       CLOUDY    55  54  94 N9        29.88R
CROSSVILLE     CLOUDY    52  50  93 NE9       29.83R
$$

TNZ061-075-076-078-094-096-097-241400-
SOUTH MIDDLE TENNESSEE

CITY           SKY/WX    TMP DP  RH WIND       PRES   REMARKS
FAYETTEVILLE   CLOUDY    55  55 100 N6        29.82R
TULLAHOMA      CLOUDY    54  54 100 N6        29.83R
WINCHESTER     CLOUDY    54  54 100 N6        29.81S
MCMINNVILLE    PTSUNNY   55  55 100 CALM      29.82R
COLUMBIA       CLOUDY   N/A N/A N/A NW3       29.84R
SHELBYVILLE    CLOUDY    55  55 100 NW5       29.84S
$$

TNZ017-018-042-046-047-241400-
NORTHEAST TENNESSEE

CITY           SKY/WX    TMP DP  RH WIND       PRES   REMARKS
TRI CITIES     CLOUDY    53  47  79 N3        29.85S
ELIZABETHTON   CLOUDY    55  52  88 CALM      29.83F
$$

TNZ012-013-036-069-073-074-241400-
CENTRAL EAST TENNESSEE

CITY           SKY/WX    TMP DP  RH WIND       PRES   REMARKS
KNOXVILLE      PTSUNNY   54  50  86 NE8       29.80S
OAK RIDGE      CLOUDY    57  50  77 VRB3      29.82F
DOWNTOWN KNOXV PTSUNNY   55  52  88 CALM      29.81F
GATLINBURG     CLOUDY    54  52  94 E7        29.80F
MORRISTOWN     SUNNY     55  50  82 E7G14     29.81F
JACKSBORO      CLOUDY    55  52  88 NE5       29.87S
$$

TNZ083-085-099-241400-
SOUTHEAST TENNESSEE

CITY           SKY/WX    TMP DP  RH WIND       PRES   REMARKS
CHATTANOOGA    CLOUDY    56  53  90 N7        29.80S
$$

SKY/WX REPORTED AS FAIR MEANS FEW OR NO CLOUDS BELOW
12 THOUSAND FEET.




USA.gov is the U.S. government's official web portal to all federal, state and local government web resources and services.